Weather History for Hickory, NC

Change the Weather History Date:

Tuesday, February 19, 2013

  Actual Average Record
Temperature  
Mean Temperature 43 °F -  
Max Temperature 51 °F 55 °F 73 °F (2014)
Min Temperature 35 °F 32 °F 10 °F (1958)
Degree Days  
Heating Degree Days 22    
Moisture  
Dew Point 30 °F    
Average Humidity 67    
Maximum Humidity 93    
Minimum Humidity 27    
Precipitation  
Precipitation 0.06 in - - ()
Sea Level Pressure  
Sea Level Pressure 29.97 in    
Wind  
Wind Speed 7 mph (SW)    
Max Wind Speed 14 mph    
Max Gust Speed 21 mph    
Visibility 9 miles    
Events Rain    
Averages and records for this station are not official NWS values.
T = Trace of Precipitation, MM = Missing Value Source: NWS Daily Summary

Daily Weather History Graph

Daily Weather History Graph

Search for Another Location

Airport:

Trip Planner

Search our weather history database for the weather conditions in past years. The results will help you decide how hot, cold, wet, or windy it might be!

Date:

Astronomy

Feb. 19, 2013 Rise Set
Actual Time 7:07 AM EST 6:11 PM EST
Civil Twilight 6:41 AM EST 6:37 PM EST
Nautical Twilight 6:11 AM EST 7:07 PM EST
Astronomical Twilight 5:42 AM EST 7:36 PM EST
Moon 12:48 PM EST (2/19) 2:32 AM EST (2/19)
Length of Visible Light 11h 55m
Length of Day
11h 03m
Waxing Gibbous, 67% of the Moon is Illuminated
Feb 19
Waxing Gibbous
Feb 25
Full
Mar 4
Last Quarter
Mar 11
New
Mar 19
First Quarter

Hourly Weather History & Observations

Time (EST) Temp. Windchill Dew Point Humidity Pressure Visibility Wind Dir Wind Speed Gust Speed Precip Events Conditions
12:53 AM 41.0 °F 35.8 °F 23.0 °F 49% 30.15 in 10.0 mi SSW 8.1 mph - N/A   Mostly Cloudy
1:53 AM 39.0 °F 34.8 °F 23.0 °F 53% 30.12 in 10.0 mi SSW 5.8 mph - N/A   Partly Cloudy
2:53 AM 37.9 °F 32.7 °F 23.0 °F 55% 30.09 in 10.0 mi SW 6.9 mph - N/A   Clear
3:53 AM 37.9 °F 35.5 °F 23.0 °F 55% 30.06 in 10.0 mi South 3.5 mph - N/A   Mostly Cloudy
4:53 AM 37.9 °F 31.5 °F 24.1 °F 57% 30.06 in 10.0 mi SSW 9.2 mph - N/A   Mostly Cloudy
5:53 AM 37.9 °F 32.7 °F 25.0 °F 60% 30.05 in 10.0 mi SSW 6.9 mph - N/A   Overcast
6:53 AM 37.9 °F 32.1 °F 28.0 °F 68% 30.05 in 10.0 mi South 8.1 mph - 0.00 in Rain Light Rain
7:53 AM 36.0 °F 32.1 °F 32.0 °F 86% 30.04 in 5.0 mi South 4.6 mph - 0.05 in Rain Light Rain
8:13 AM 35.6 °F 31.7 °F 33.8 °F 93% 30.04 in 8.0 mi Variable 4.6 mph - 0.01 in Rain Light Rain
8:53 AM 36.0 °F 33.3 °F 33.1 °F 89% 29.99 in 8.0 mi Variable 3.5 mph - 0.01 in Rain Light Rain
9:13 AM 35.6 °F - 33.8 °F 93% 30.01 in 5.0 mi Calm Calm - 0.00 in Rain Light Rain
9:24 AM 35.6 °F - 33.8 °F 93% 30.00 in 7.0 mi Calm Calm - 0.00 in   Overcast
9:53 AM 37.0 °F 31.6 °F 35.1 °F 93% 29.97 in 5.0 mi South 6.9 mph - 0.00 in   Overcast
10:05 AM 37.4 °F 30.8 °F 35.6 °F 93% 29.98 in 6.0 mi South 9.2 mph - 0.00 in   Overcast
10:30 AM 39.2 °F 33.0 °F 35.6 °F 87% 29.99 in 10.0 mi SW 9.2 mph 20.7 mph 0.00 in   Overcast
10:53 AM 39.0 °F 34.0 °F 36.0 °F 89% 29.97 in 9.0 mi SW 6.9 mph - 0.00 in   Overcast
11:53 AM 43.0 °F 36.8 °F 39.0 °F 86% 29.93 in 10.0 mi SSW 11.5 mph 20.7 mph N/A   Overcast
12:13 PM 42.8 °F 35.8 °F 39.2 °F 87% 29.93 in 10.0 mi SSW 13.8 mph 19.6 mph N/A   Overcast
1:24 PM 46.4 °F 41.5 °F 39.2 °F 76% 29.89 in 10.0 mi SSW 10.4 mph - N/A   Overcast
1:53 PM 46.9 °F - 39.9 °F 77% 29.86 in 10.0 mi SSW 6.9 mph - N/A   Overcast
2:25 PM 48.2 °F - 39.2 °F 71% 29.86 in 10.0 mi SSW 9.2 mph - N/A   Scattered Clouds
2:53 PM 50.0 °F - 41.0 °F 71% 29.84 in 10.0 mi South 11.5 mph 16.1 mph N/A   Mostly Cloudy
3:53 PM 51.1 °F - 39.9 °F 66% 29.82 in 10.0 mi South 8.1 mph 18.4 mph N/A   Mostly Cloudy
4:53 PM 50.0 °F - 41.0 °F 71% 29.83 in 10.0 mi Variable 5.8 mph - N/A   Partly Cloudy
5:53 PM 50.0 °F - 32.0 °F 50% 29.86 in 10.0 mi NW 9.2 mph - N/A   Clear
7:53 PM 46.0 °F 41.0 °F 17.1 °F 31% 29.93 in 10.0 mi WNW 10.4 mph 17.3 mph N/A   Clear
8:53 PM 43.0 °F 38.2 °F 14.0 °F 31% 29.95 in 10.0 mi West 8.1 mph - N/A   Clear
9:53 PM 43.0 °F 38.2 °F 10.9 °F 27% 29.97 in 10.0 mi West 8.1 mph - N/A   Clear
10:53 PM 41.0 °F - 10.9 °F 29% 29.98 in 10.0 mi Calm Calm - N/A   Clear
11:53 PM 39.0 °F 32.3 °F 12.0 °F 33% 29.99 in 10.0 mi West 10.4 mph - N/A   Clear